Zurück zum Katalog

COSMOS 2498

AktivNavigationPO
NORAD 39763·PAYLOAD·🇷🇺 Russia

Gestartet May 23, 2014 von Plesetsk Cosmodrome

Loading…

Nächste Überflüge (nächste 24 Stunden)

TLE

AktuellSource: Space-Track

Epoche: Sep 14, 2026, 21:13 UTC

1 39763U 14028C   26257.88405597  .00000016  00000-0  48645-4 0  9999
2 39763  82.4444  52.6992 0020569 237.4532 122.4561 12.42983076558693

Verfolge COSMOS 2498 in Echtzeit mit AllMySat

Download on the App Store